590  
ASUS43 KIWX 192310  
RWRIWX  
 
KIWX WEATHER ROUNDUP  
NATIONAL WEATHER SERVICE NORTHERN INDIANA  
700 PM EDT SUN MAY 19 2019  
 
NOTE: "FAIR" INDICATES FEW OR NO CLOUDS BELOW 12,000 FEET WITH NO  
SIGNIFICANT WEATHER AND/OR S TO VISIBILITY
.  
 
* THESE STATIONS ARE NOT UNDER NWS QUALITY CONTROL. THEY ALSO MAY NOT  
REPORT WEATHER SUCH AS PRECIPITATION OR FOG.
 
 
INZ001>027-200000-  
NORTHERN INDIANA  
 
CITY SKY/WX TMP DP RH WIND PRES REMARKS
 
GARY* PTSUNNY 73 57 56 W12G23 29.65R  
VALPARAISO PTSUNNY 75 55 49 W25G36 29.66R  
MICHIGAN CITY* PTSUNNY 72 52 49 W9G20 29.65R  
LAPORTE* CLOUDY 73 57 57 W13G25 29.65R  
KNOX* PTSUNNY 70 57 64 SE13 29.65R  
SOUTH BEND FAIR 69 63 81 SW10 29.63S  
GOSHEN FAIR 68 56 65 SW25G37 29.66R  
MONTICELLO* FAIR 69 61 76 SW15 29.68R  
ROCHESTER* FAIR 68 57 68 SW10G16 29.68S  
WARSAW* FAIR 64 54 68 SW12G23 29.67R  
AUBURN* LGT RAIN 64 61 88 S10G24 29.69F  
FORT WAYNE TSTM 64 59 83 SW16 29.72S  
HUNTINGTON* TSTM 63 59 88 S15G30 29.70F  
PERU/GRISSOM MOSUNNY 67 63 86 SW14G22 29.69R  
 

 
INZ028>050-200000-  
CENTRAL INDIANA  
 
CITY SKY/WX TMP DP RH WIND PRES REMARKS
 
LAFAYETTE FAIR 70 63 78 SW12G21 29.70S  
KOKOMO* CLOUDY 64 60 87 S13 29.72R  
MUNCIE* FAIR 73 64 73 S12G21 29.74S  
INDIANAPOLIS TSTM 63 61 93 W26G54 29.77R SQUALL FOG  
 

 
MIZ043>046-050>051-056>058-064>065-071>073-077>080-200000-  
SOUTHWEST LOWER MICHIGAN  
 
CITY SKY/WX TMP DP RH WIND PRES REMARKS
 
BATTLE CREEK CLOUDY 63 59 87 SW12 29.65S  
BENTON HARBOR PTSUNNY 66 55 67 W18G30 29.63R  
COLDWATER* CLOUDY 67 62 85 S12G20 29.66F  
HILLSDALE* CLOUDY 64 58 80 S9G23 29.69S  
HOLLAND FAIR 67 55 65 W20G28 29.60R  
GRAND RAPIDS PTSUNNY 67 60 78 SW13G22 29.60R  
KALAMAZOO TSTM 64 60 87 SW15G25 29.64S FOG  
STURGIS* LGT RAIN 67 64 89 S13G23 29.64S  
THREE RIVERS* RAIN 70 64 80 SW12G17 29.64F  
 

 
OHZ001>008-015>018-024>025-200000-  
NORTHWEST OHIO  
 
CITY SKY/WX TMP DP RH WIND PRES REMARKS
 
WAUSEON* FAIR 66 66 100 S22G28 29.71F  
DEFIANCE FAIR 69 60 73 S14G26 29.72F  
FINDLAY CLOUDY 65 61 87 S14 29.77F  
OTTAWA* PTSUNNY 63 59 88 S12G18 29.77F  
TOLEDO EXPRESS FAIR 66 58 75 S9 29.74S  
LIMA CLOUDY 65 61 87 S10 29.78F  
 

 
AND FOR LAKE MICHIGAN COASTAL AND OPEN LAKE BUOY OBSERVATIONS  
 
STATION/POSITION TEMP WIND PRES VSBY WAVE
 
AIR SEA DIR/SP/G HT/PER  
(F) (DEG/KT/KT) (MB) (MI) (FT/S)  
CALUMET HARBOR 72 240/ 9/ 17 1003.3R  
MICHIGAN CITY 61 230/ 14/ 14 N/A  
BURNS HARBOR 69 260/ 12/ 16 1004.4R  
SAINT JOSEPH 59 250/ 10/ 13 1004.7  
SOUTH LAKE BUOY 45 39 210/ 10/ 12 1003.1R 2/ 5  
4 MI NW BRIDGMAN 56 51 260/ 12/ 16 1003.8 2/ 4  
 

 

 
 
 
CLICK HERE TO GO TO PREVIOUS BULLETINS.

The Nexlab IN Page
The Nexlab OH Page
The Nexlab MI Page Main Text Page